STARLINK-4352, 53047

Orbit data source: Space-Track

STARLINK-4352, 53047 is a payload satellite owned by SpaceX/Seattle (US) in SSO that was launched on Mon, 11 Jul 2022 UTC via an FALCON 9 launch vehicle from the Air Force Western Test Range (AFWTR). Payload-class satellites include a variety of spacecraft equipped with specific instruments for various scientific and technological missions. These include communications satellites like Starlink; space stations such as the ISS; scientific satellites like the Hubble; Earth observation satellites from companies like Planet Labs, Umbra, and HawkEye 360; GPS; miniature CubeSats for education and research; and military/defense satellites.

Loading next visibility...
Identifier
53047, 2022-077E
Orbit
SSO
Country
Flag of USUS
Related business
Manufacturer
SpaceX/Seattle
Mission
Operational Commercial Communications
Bus & Motor
STARLINK, Unknown motor
Mass
297 kg wet, ~275 kg dry
Launch date (UTC)
2022-07-11 (3 years ago)
Launch vehicle
FALCON 9
Launch site
Air Force Western Test Range (AFWTR)
Object type
Payload
Rocket body
Debris
Shape & HBR
Box + 1 Pan, 10.1 m
Radar Cross Section
13.562 m², Large (>1 m²)

Expand to show TLE details & history
Last TLE update: 22 hours ago

TLE from 22 hours ago
0 STARLINK-4352
1 53047U 22077E   25348.77421679 -.00000190  00000-0 -10279-4 0  9997
2 53047  97.6020 167.1193 0003306  62.9311 297.2251 15.01254410188184
Epoch: 2025-12-14T18:34Z
TLE epoch observation values (Epoch: 2025-12-14T18:34:52.330Z)
Latitude
0.00002°
Longitude
164.71894°
Altitude
565.037 km
Speed
7.579 km/s
True Right ascension
11h 08m 28s
True Declination
0° 00' 00"
Sunlit
Object was in daylight at epoch
Visualization orbit readout
Latitude
Unknown
Longitude
Unknown
Altitude
Unknown
Speed
Unknown
Apparent Right ascension
Unknown
Apparent Declination
Unknown
Sunlit
N/A
Visualization observer readout
Local Sidereal Time
15:08:56
Azimuth
Unknown
Elevation
Unknown
Doppler factor
Unknown
Orbital elements
Apogee altitude
562.32 km
Perigee altitude
557.733 km
Semi-major axis
6,938.163 km
Eccentricity
0.00033
Inclination
97.602°
RAAN
167.1193°
Arg. of periapsis
62.9311°
True anomaly
297.19141°
Mean anomaly
297.2251°
Eccentric anomaly
297.20825°
Mean motion
3.75557 °/min
Orbital period
95.86 mins
BSTAR
-0.000010279
Loading maneuver chart data...
Computing Atmospheric mass density...
Loading historical data...
Loading historical data...
Loading historical data...
Loading historical data...
Loading historical data...
Loading historical data...
Loading historical data...

Documentation

Showing up to 5 results
|